EN

Hourly Weather Abbotsford

Today, 29 November, Sunday

Time Temperature Precipitation Wind Pressure Humidity
00:00 +3°C° 0 mm 2 mps 764 mmHg 82%
01:00 +4°C° 0 mm 1 mps 763 mmHg 80%
02:00 +3°C° 0 mm 2 mps 763 mmHg 79%
03:00 +2°C° 0 mm 2 mps 763 mmHg 79%
04:00 +2°C° 0 mm 2 mps 763 mmHg 78%
05:00 +2°C° 0 mm 2 mps 762 mmHg 76%
06:00 +3°C° 0 mm 1 mps 762 mmHg 75%
07:00 +3°C° 0 mm 1 mps 762 mmHg 73%
08:00 +4°C° 0 mm 1 mps 762 mmHg 71%
09:00 +6°C° 0 mm 1 mps 761 mmHg 68%
10:00 +7°C° 0 mm 1 mps 761 mmHg 65%
11:00 +8°C° 0 mm 1 mps 760 mmHg 64%
12:00 +9°C° 0 mm 1 mps 760 mmHg 63%
13:00 +9°C° 0 mm 0 mps 759 mmHg 62%
14:00 +9°C° 0 mm 1 mps 758 mmHg 66%
15:00 +8°C° 0 mm 1 mps 758 mmHg 69%
16:00 +8°C° 0 mm 1 mps 758 mmHg 72%
17:00 +8°C° 0 mm 1 mps 757 mmHg 72%
18:00 +8°C° 0 mm 1 mps 757 mmHg 71%
19:00 +8°C° 0 mm 1 mps 756 mmHg 70%
20:00 +8°C° 0 mm 1 mps 756 mmHg 71%
21:00 +8°C° 0 mm 1 mps 755 mmHg 72%
22:00 +8°C° 0 mm 1 mps 755 mmHg 73%
23:00 +8°C° 0 mm 1 mps 753 mmHg 72%

Tomorrow, 30 November, Monday

Time Temperature Precipitation Wind Pressure Humidity
00:00 +7°C° 0 mm 2 mps 752 mmHg 72%
01:00 +7°C° 0 mm 2 mps 751 mmHg 71%
02:00 +6°C° 1.4 mm 2 mps 750 mmHg 79%
03:00 +6°C° 1.4 mm 2 mps 749 mmHg 86%
04:00 +5°C° 1.4 mm 2 mps 748 mmHg 93%
05:00 +5°C° 2.2 mm 2 mps 747 mmHg 94%
06:00 +5°C° 2.2 mm 2 mps 747 mmHg 95%
07:00 +5°C° 2.2 mm 2 mps 747 mmHg 95%
08:00 +5°C° 0.8 mm 3 mps 748 mmHg 92%
09:00 +5°C° 0.8 mm 4 mps 750 mmHg 88%
10:00 +5°C° 0.8 mm 5 mps 751 mmHg 84%
11:00 +6°C° 0.1 mm 4 mps 752 mmHg 82%
12:00 +6°C° 0.1 mm 4 mps 753 mmHg 80%
13:00 +8°C° 0.1 mm 3 mps 755 mmHg 77%
14:00 +7°C° 0.2 mm 3 mps 756 mmHg 79%
15:00 +5°C° 0.2 mm 3 mps 757 mmHg 82%
16:00 +6°C° 0.2 mm 2 mps 759 mmHg 84%
17:00 +5°C° 0 mm 2 mps 760 mmHg 85%
18:00 +5°C° 0 mm 1 mps 761 mmHg 86%
19:00 +4°C° 0 mm 1 mps 762 mmHg 88%
20:00 +4°C° 0 mm 1 mps 763 mmHg 88%
21:00 +4°C° 0 mm 1 mps 764 mmHg 88%
22:00 +4°C° 0 mm 1 mps 765 mmHg 88%
23:00 +4°C° 0 mm 1 mps 766 mmHg 89%

Day after tomorrow, 1 December, Tuesday

Time Temperature Precipitation Wind Pressure Humidity
00:00 +4°C° 0 mm 1 mps 766 mmHg 89%
01:00 +3°C° 0 mm 1 mps 767 mmHg 89%
02:00 +3°C° 0 mm 1 mps 768 mmHg 89%
03:00 +3°C° 0 mm 1 mps 768 mmHg 89%
04:00 +3°C° 0 mm 1 mps 769 mmHg 89%
05:00 +2°C° 0 mm 1 mps 769 mmHg 88%
06:00 +2°C° 0 mm 1 mps 769 mmHg 87%
07:00 +2°C° 0 mm 1 mps 769 mmHg 87%
08:00 +3°C° 0 mm 1 mps 769 mmHg 84%
09:00 +4°C° 0 mm 1 mps 769 mmHg 80%
10:00 +5°C° 0 mm 1 mps 769 mmHg 77%
11:00 +5°C° 0 mm 1 mps 769 mmHg 75%
12:00 +6°C° 0 mm 1 mps 768 mmHg 72%
13:00 +7°C° 0 mm 1 mps 768 mmHg 70%
14:00 +6°C° 0 mm 1 mps 768 mmHg 75%
15:00 +5°C° 0 mm 1 mps 768 mmHg 81%
16:00 +4°C° 0 mm 1 mps 768 mmHg 86%
17:00 +4°C° 0 mm 1 mps 768 mmHg 86%
18:00 +3°C° 0 mm 1 mps 768 mmHg 86%
19:00 +3°C° 0 mm 1 mps 768 mmHg 86%
20:00 +3°C° 0 mm 1 mps 768 mmHg 84%
21:00 +2°C° 0 mm 1 mps 767 mmHg 82%
22:00 +2°C° 0 mm 1 mps 767 mmHg 81%
23:00 +1°C° 0 mm 2 mps 767 mmHg 79%

2 December, Wednesday

Time Temperature Precipitation Wind Pressure Humidity
00:00 +1°C° 0 mm 2 mps 767 mmHg 78%
01:00 +1°C° 0 mm 2 mps 767 mmHg 76%
02:00 +1°C° 0 mm 2 mps 766 mmHg 76%
03:00 +1°C° 0 mm 2 mps 766 mmHg 76%
04:00 +2°C° 0 mm 1 mps 766 mmHg 76%
05:00 +1°C° 0 mm 2 mps 765 mmHg 75%
06:00 +1°C° 0 mm 2 mps 765 mmHg 75%
07:00 +1°C° 0 mm 2 mps 764 mmHg 75%
08:00 +3°C° 0 mm 2 mps 764 mmHg 72%
09:00 +4°C° 0 mm 2 mps 763 mmHg 68%
10:00 +6°C° 0 mm 1 mps 763 mmHg 65%
11:00 +7°C° 0 mm 1 mps 762 mmHg 65%
12:00 +8°C° 0 mm 1 mps 762 mmHg 64%
13:00 +9°C° 0 mm 1 mps 761 mmHg 64%
14:00 +8°C° 0 mm 1 mps 761 mmHg 70%
15:00 +7°C° 0 mm 1 mps 761 mmHg 76%
16:00 +6°C° 0 mm 1 mps 761 mmHg 82%
17:00 +6°C° 0 mm 1 mps 761 mmHg 82%
18:00 +5°C° 0 mm 1 mps 761 mmHg 82%
19:00 +5°C° 0 mm 1 mps 761 mmHg 81%
20:00 +5°C° 0 mm 1 mps 761 mmHg 80%
21:00 +5°C° 0 mm 1 mps 761 mmHg 79%
22:00 +4°C° 0 mm 1 mps 761 mmHg 77%
23:00 +4°C° 0 mm 1 mps 761 mmHg 77%

3 December, Thursday

Time Temperature Precipitation Wind Pressure Humidity
00:00 +4°C° 0 mm 1 mps 761 mmHg 77%
01:00 +4°C° 0 mm 1 mps 761 mmHg 77%
02:00 +4°C° 0 mm 1 mps 761 mmHg 77%
03:00 +3°C° 0 mm 1 mps 761 mmHg 78%
04:00 +3°C° 0 mm 1 mps 761 mmHg 78%
05:00 +3°C° 0 mm 1 mps 762 mmHg 78%
06:00 +3°C° 0 mm 1 mps 762 mmHg 78%
07:00 +3°C° 0 mm 1 mps 762 mmHg 77%
08:00 +4°C° 0 mm 1 mps 762 mmHg 75%
09:00 +4°C° 0 mm 0 mps 762 mmHg 73%
10:00 +5°C° 0 mm 0 mps 762 mmHg 71%
11:00 +6°C° 0 mm 0 mps 763 mmHg 70%
12:00 +6°C° 0 mm 0 mps 763 mmHg 69%
13:00 +7°C° 0 mm 0 mps 763 mmHg 68%
14:00 +6°C° 0 mm 0 mps 763 mmHg 73%
15:00 +6°C° 0 mm 0 mps 763 mmHg 78%
16:00 +5°C° 0 mm 0 mps 763 mmHg 82%
17:00 +4°C° 0 mm 0 mps 763 mmHg 83%
18:00 +4°C° 0 mm 0 mps 763 mmHg 83%
19:00 +4°C° 0 mm 0 mps 764 mmHg 83%
20:00 +5°C° 0 mm 1 mps 764 mmHg 83%
21:00 +5°C° 0 mm 1 mps 764 mmHg 83%
22:00 +4°C° 0 mm 1 mps 764 mmHg 82%
23:00 +4°C° 0 mm 1 mps 764 mmHg 82%

4 December, Friday

Time Temperature Precipitation Wind Pressure Humidity
00:00 +4°C° 0 mm 1 mps 764 mmHg 81%
01:00 +4°C° 0 mm 1 mps 764 mmHg 80%
02:00 +4°C° 0 mm 1 mps 764 mmHg 79%
03:00 +4°C° 0 mm 1 mps 764 mmHg 78%
04:00 +4°C° 0 mm 1 mps 765 mmHg 77%
05:00 +4°C° 0 mm 1 mps 765 mmHg 77%
06:00 +4°C° 0 mm 1 mps 765 mmHg 77%
07:00 +4°C° 0 mm 1 mps 765 mmHg 76%
08:00 +5°C° 0 mm 1 mps 765 mmHg 73%
09:00 +6°C° 0 mm 1 mps 765 mmHg 70%
10:00 +7°C° 0 mm 1 mps 765 mmHg 67%
11:00 +8°C° 0 mm 1 mps 764 mmHg 66%
12:00 +8°C° 0 mm 0 mps 764 mmHg 65%
13:00 +9°C° 0 mm 0 mps 763 mmHg 64%
14:00 +8°C° 0 mm 0 mps 763 mmHg 70%
15:00 +7°C° 0 mm 0 mps 763 mmHg 76%
16:00 +5°C° 0 mm 0 mps 763 mmHg 82%
17:00 +5°C° 0 mm 0 mps 763 mmHg 82%
18:00 +6°C° 0 mm 1 mps 763 mmHg 81%
19:00 +5°C° 0 mm 1 mps 763 mmHg 81%
20:00 +5°C° 0 mm 1 mps 763 mmHg 80%
21:00 +5°C° 0 mm 1 mps 763 mmHg 80%
22:00 +5°C° 0 mm 1 mps 762 mmHg 79%
23:00 +5°C° 0 mm 1 mps 762 mmHg 78%
Show more